K5WRW-WX Weather Reports


Display with metric or nautical units.
time (UTC)temp
F
wind
direction
speed
MPH
gust
MPH
rain 1hr
in
rain 24hr
in
rain mn
in
humidity
%
barometer
mb
20260510163116 63 68 6.0 8.0 0.35 0.71 0.71 92 1015.2
20260510162117 63 23 7.0 11.0 0.36 0.69 0.69 92 1015.8
20260510161117 63 45 7.0 11.0 0.35 0.68 0.68 91 1015.5
20260510160117 64 338 5.0 9.0 0.31 0.64 0.64 91 1016.2
20260510155117 64 315 11.0 26.0 0.23 0.56 0.56 91 1016.1
20260510154137 64 338 10.0 14.0 0.14 0.47 0.47 89 1015.6
20260510153136 65 0 9.0 16.0 0.03 0.36 0.36 87 1014.9
20260510152116 66 23 11.0 15.0 0.00 0.33 0.33 85 1014.3
20260510151116 67 23 11.0 15.0 0.00 0.33 0.33 83 1014.5
20260510150156 68 0 8.0 12.0 0.00 0.33 0.33 82 1014.1
20260510145117 69 23 8.0 11.0 0.00 0.33 0.33 82 1013.2
20260510144116 68 45 7.0 11.0 0.00 0.33 0.33 83 1013.1
20260510143116 70 0 8.0 13.0 0.00 0.33 0.33 82 1013.1
20260510142116 70 0 5.0 6.0 0.00 0.33 0.33 82 1012.2
20260510141116 70 0 6.0 9.0 0.00 0.33 0.33 85 1012.0
20260510140116 68 0 6.0 8.0 0.00 0.33 0.33 86 1011.9
20260510135136 68 0 5.0 9.0 0.00 0.33 0.33 87 1012.2
20260510134116 67 0 5.0 7.0 0.00 0.33 0.33 88 1012.2
20260510133116 67 0 7.0 9.0 0.00 0.33 0.33 89 1012.2
20260510132116 66 0 7.0 10.0 0.00 0.33 0.33 90 1012.4
20260510131116 66 0 7.0 10.0 0.00 0.33 0.33 91 1012.5
20260510130116 66 0 7.0 9.0 0.00 0.33 0.33 91 1012.5
20260510125116 65 0 4.0 6.0 0.00 0.33 0.33 91 1012.5
20260510124116 65 0 5.0 6.0 0.00 0.33 0.33 91 1012.6
20260510123116 66 23 6.0 7.0 0.00 0.33 0.33 90 1012.7
20260510122116 66 0 5.0 7.0 0.00 0.33 0.33 90 1012.8
20260510121116 66 23 2.0 4.0 0.01 0.33 0.33 90 1013.0
20260510120116 66 0 6.0 8.0 0.03 0.33 0.33 90 1012.2
20260510115116 66 0 7.0 10.0 0.06 0.33 0.33 90 1012.0
20260510114116 66 0 6.0 8.0 0.06 0.33 0.33 90 1011.9
20260510113116 66 0 7.0 9.0 0.06 0.33 0.33 91 1012.2
20260510112116 66 45 2.0 4.0 0.06 0.33 0.33 91 1012.9
20260510111136 66 0 4.0 5.0 0.05 0.32 0.32 91 1012.2
20260510110116 66 225 5.0 7.0 0.03 0.30 0.30 90 1012.0
20260510105116 66 0 3.0 5.0 0.00 0.27 0.27 91 1011.5
20260510104117 66 0 4.0 8.0 0.00 0.27 0.27 90 1011.7
20260510103116 66 68 6.0 9.0 0.00 0.27 0.27 90 1012.0
20260510102116 66 0 6.0 9.0 0.00 0.27 0.27 90 1011.6
20260510101116 66 0 5.0 8.0 0.00 0.27 0.27 90 1011.8
20260510100116 66 0 5.0 8.0 0.00 0.27 0.27 90 1012.0
20260510095115 65 0 5.0 6.0 0.00 0.27 0.27 90 1011.9
20260510094116 66 0 4.0 5.0 0.01 0.27 0.27 89 1011.4
20260510093116 65 0 5.0 8.0 0.05 0.27 0.27 89 1011.4
20260510092116 65 0 2.0 4.0 0.06 0.27 0.27 88 1012.0
20260510091115 65 0.0 1.0 0.06 0.27 0.27 88 1012.5
20260510090116 65 0.0 2.0 0.06 0.27 0.27 87 1011.6
20260510085115 66 0 6.0 7.0 0.06 0.27 0.27 86 1010.7
20260510084116 66 0 2.0 5.0 0.05 0.26 0.26 85 1011.1
20260510083116 67 0 2.0 5.0 0.01 0.22 0.22 83 1013.1
20260510082116 67 270 6.0 7.0 0.00 0.21 0.21 83 1013.2
20260510081115 68 338 6.0 9.0 0.00 0.21 0.21 84 1012.2
20260510080116 68 23 9.0 12.0 0.00 0.21 0.21 84 1012.2
20260510075115 68 23 11.0 19.0 0.00 0.21 0.21 85 1011.9
20260510074115 69 0 8.0 10.0 0.00 0.21 0.21 86 1011.9
20260510073115 69 45 3.0 6.0 0.00 0.21 0.21 87 1011.7
20260510072115 67 23 8.0 10.0 0.03 0.21 0.21 87 1011.4
20260510071115 66 0 11.0 15.0 0.06 0.21 0.21 83 1011.7
20260510070115 67 0 4.0 7.0 0.09 0.21 0.21 82 1010.7
20260510065136 68 90 9.0 11.0 0.19 0.21 0.21 82 1009.9
20260510064115 69 0 10.0 16.0 0.21 0.21 0.21 85 1010.2
20260510063115 68 90 8.0 12.0 0.21 0.21 0.21 86 1010.7
20260510062115 67 0 13.0 20.0 0.18 0.18 0.18 81 1011.2
20260510061115 68 90 13.0 19.0 0.15 0.15 0.15 87 1011.6
20260510060117 70 23 10.0 14.0 0.12 0.12 0.12 83 1012.8
20260510055117 75 315 6.0 9.0 0.02 0.02 0.02 81 1012.3
20260510054137 76 338 3.0 5.0 0.00 0.00 0.00 79 1012.3
20260510053117 76 0 6.0 7.0 0.00 0.00 0.00 79 1012.0
20260510052115 75 45 5.0 7.0 0.00 0.00 0.00 80 1011.7
20260510051117 74 45 6.0 8.0 0.00 0.00 0.00 80 1011.7
20260510050117 73 45 5.0 8.0 0.00 0.00 0.00 79 1011.2
20260510045137 73 23 8.0 12.0 0.00 0.00 0.00 78 1010.8
20260510044117 74 0 5.0 9.0 0.00 0.00 0.00 78 1010.0
20260510043117 74 90 6.0 9.0 0.00 0.00 0.00 78 1008.9
20260510042117 73 0 4.0 6.0 0.00 0.00 0.00 77 1008.4
20260510041117 73 0 4.0 6.0 0.00 0.00 0.00 76 1008.1
20260510040117 74 0 5.0 7.0 0.00 0.00 0.00 76 1008.0
20260510035116 74 0 3.0 5.0 0.00 0.00 0.00 75 1008.0
20260510034116 74 0 4.0 7.0 0.00 0.00 0.00 74 1007.7
20260510033117 75 0 6.0 7.0 0.00 0.00 0.00 74 1007.8
20260510032117 75 0 5.0 7.0 0.00 0.00 0.00 73 1008.0
20260510031157 76 0 5.0 7.0 0.00 0.00 0.00 72 1008.0
20260510030116 76 0 5.0 7.0 0.00 0.00 0.00 71 1007.9
20260510025116 76 0 6.0 10.0 0.00 0.00 0.00 71 1007.8
20260510024116 76 0 7.0 9.0 0.00 0.00 0.00 70 1007.7
20260510023117 77 0 5.0 8.0 0.00 0.00 0.00 69 1007.8
20260510022116 77 0 7.0 9.0 0.00 0.00 0.00 67 1007.6
20260510021157 78 0 8.0 10.0 0.00 0.00 0.00 65 1007.8
20260510020136 79 0 7.0 10.0 0.00 0.00 0.00 62 1007.7
20260510015136 79 0 6.0 9.0 0.00 0.00 0.00 62 1007.6
20260510014116 79 0.0 1.0 0.00 0.00 0.00 62 1007.7
20260510013116 80 0 1.0 4.0 0.00 0.00 0.00 62 1007.6
20260510012136 80 0 1.0 2.0 0.00 0.00 0.00 62 1007.7
20260510011116 81 0 3.0 5.0 0.00 0.00 0.00 61 1007.5
20260510010116 81 0 3.0 5.0 0.00 0.00 0.00 61 1007.4
20260510005116 81 0 3.0 5.0 0.00 0.00 0.00 61 1007.3
20260510004116 82 0 2.0 6.0 0.00 0.00 0.00 61 1007.3
20260510003116 82 0 3.0 7.0 0.00 0.00 0.00 60 1007.3
20260510002116 82 0 7.0 9.0 0.00 0.00 0.00 60 1007.2
20260510001156 83 0 7.0 9.0 0.00 0.00 0.00 60 1007.1
20260510000116 83 0 5.0 9.0 0.00 0.00 0.00 61 1007.0
20260509235116 83 0 9.0 13.0 0.00 0.00 0.00 60 1007.0
20260509234116 83 0 3.0 6.0 0.00 0.00 0.00 60 1007.1
20260509233116 84 0 6.0 10.0 0.00 0.00 0.00 60 1007.2
20260509232116 85 0 7.0 10.0 0.00 0.00 0.00 57 1007.2
20260509231116 84 90 6.0 7.0 0.00 0.00 0.00 58 1007.3
20260509230116 85 0 7.0 10.0 0.00 0.00 0.00 59 1007.4
20260509225116 86 0 6.0 11.0 0.00 0.00 0.00 58 1007.5
20260509224116 85 90 6.0 10.0 0.00 0.00 0.00 56 1007.4
20260509223116 86 0 6.0 8.0 0.00 0.00 0.00 56 1007.4
20260509222116 86 0 4.0 5.0 0.00 0.00 0.00 53 1007.4
20260509221116 86 68 4.0 6.0 0.00 0.00 0.00 54 1007.3
20260509220116 86 45 2.0 5.0 0.00 0.00 0.00 53 1007.3
20260509215116 86 0 4.0 7.0 0.00 0.00 0.00 54 1007.2
20260509214116 86 0 4.0 7.0 0.00 0.00 0.00 53 1007.3
20260509213116 86 90 7.0 10.0 0.00 0.00 0.00 53 1007.4
20260509212116 85 68 7.0 10.0 0.00 0.00 0.00 55 1007.5
20260509211116 85 90 7.0 10.0 0.00 0.00 0.00 55 1007.6
20260509210115 86 0 4.0 7.0 0.00 0.00 0.00 54 1007.8
20260509205116 86 0 4.0 9.0 0.00 0.00 0.00 53 1007.9
20260509204115 85 90 3.0 5.0 0.00 0.00 0.00 55 1008.0
20260509203115 85 45 6.0 9.0 0.00 0.00 0.00 54 1008.1
20260509202116 85 90 6.0 8.0 0.00 0.00 0.00 56 1008.3
20260509201115 85 0 4.0 8.0 0.00 0.00 0.00 55 1008.3
20260509200115 85 68 6.0 9.0 0.00 0.00 0.00 56 1008.4
20260509195115 84 90 7.0 10.0 0.00 0.00 0.00 58 1008.5
20260509194115 84 68 2.0 5.0 0.00 0.00 0.00 57 1008.6
20260509193115 85 0 3.0 6.0 0.00 0.00 0.00 57 1008.8
20260509192115 85 338 4.0 6.0 0.00 0.00 0.00 59 1008.9
20260509191136 84 68 3.0 6.0 0.00 0.00 0.00 57 1008.9
20260509190116 84 0 4.0 9.0 0.00 0.00 0.00 60 1009.0
20260509185115 83 0.0 1.0 0.00 0.00 0.00 60 1009.1
20260509184115 83 90 5.0 7.0 0.00 0.00 0.00 62 1009.2
20260509183115 83 0 3.0 5.0 0.00 0.00 0.00 65 1009.2
20260509182115 82 68 5.0 7.0 0.00 0.00 0.00 67 1009.3
20260509181115 81 90 4.0 8.0 0.00 0.00 0.00 66 1009.4
20260509180116 81 90 7.0 10.0 0.00 0.00 0.00 67 1009.5
20260509175115 82 90 8.0 11.0 0.00 0.00 0.00 66 1009.6
20260509174115 82 45 4.0 6.0 0.00 0.00 0.00 68 1009.6
20260509173117 81 90 6.0 9.0 0.00 0.00 0.00 67 1009.7
20260509172117 80 23 5.0 7.0 0.00 0.00 0.00 71 1009.8
20260509171117 80 0 2.0 5.0 0.00 0.00 0.00 71 1009.9
20260509170138 80 68 6.0 8.0 0.00 0.00 0.00 71 1009.9
20260509165117 79 68 6.0 10.0 0.00 0.00 0.00 73 1009.9
20260509164117 79 23 2.0 6.0 0.00 0.00 0.00 74 1010.0